Notices

What's New in latest Release from April 7th, 2021:

- Updated Glossary, including Speed of Maximum Gust, and Total Hourly Precipitation

- Updated national and regional climate services offices contacts and prices information

- Addition of station inventory lists for 1981-2010, 1971-2000, and 1961-1990 Normals.

If you haven't already, please take our survey and provide feedback about our website: https://eccc.sondage-survey.ca/f/LanguageSelection.aspx?s=442ca660-fcf1-47c0-95a9-59707d6fd709

Hourly Data Report for September 17, 2018

TORONTO CITY
ONTARIO
Current Station Operator: ECCC - MSC

43°40'00.000" N
79°24'00.000" W
112.50 m
6158355
71508
XTO

Download Data

Hourly Data (September 2018)
Hourly Data Report for September 17, 2018
TIME
LST
Temp Definition
°C
Dew Point Definition
°C
Rel Hum Definition
%
Precip. Amount Definition
mm

Wind Dir Definition
10's deg

Wind Spd Definition
km/h
Visibility Definition
km
Stn Press Definition
kPa
Hmdx Definition


Wind Chill Definition


Weather Definition


00:00 21.9 19.2 84 0.0 LegendMM LegendMM   100.52 29   LegendNANA
01:00 21.5 19.2 87 0.0 LegendMM LegendMM   100.48 28   LegendNANA
02:00 21.0 18.9 88 0.0 LegendMM LegendMM   100.42 28   LegendNANA
03:00 21.4 19.6 89 0.0 LegendMM LegendMM   100.40 29   LegendNANA
04:00 21.1 19.3 90 0.0 LegendMM LegendMM   100.37 28   LegendNANA
05:00 20.7 19.0 90 0.0 LegendMM LegendMM   100.35 27   LegendNANA
06:00 20.4 18.8 90 0.0 LegendMM LegendMM   100.34 27   LegendNANA
07:00 21.0 19.2 89 0.0 LegendMM LegendMM   100.35 28   LegendNANA
08:00 22.8 18.5 77 0.0 LegendMM LegendMM   100.32 29   LegendNANA
09:00 23.5 18.1 71 0.0 LegendMM LegendMM   100.31 30   LegendNANA
10:00 24.1 17.6 67 0.0 LegendMM LegendMM   100.27 30   LegendNANA
11:00 24.8 17.8 65 0.0 LegendMM LegendMM   100.23 31   LegendNANA
12:00 25.4 18.2 65 0.0 LegendMM LegendMM   100.17 32   LegendNANA
13:00 25.5 17.2 60 0.0 LegendMM LegendMM   100.12 31   LegendNANA
14:00 25.7 18.3 64 0.0 LegendMM LegendMM   100.03 32   LegendNANA
15:00 25.6 17.6 61 0.0 LegendMM LegendMM   99.94 31   LegendNANA
16:00 25.4 17.7 62 0.0 LegendMM LegendMM   99.87 31   LegendNANA
17:00 25.2 17.7 63 0.0 LegendMM LegendMM   99.85 31   LegendNANA
18:00 24.9 17.7 64 0.0 LegendMM LegendMM   99.81 31   LegendNANA
19:00 24.0 18.1 69 0.0 LegendMM LegendMM   99.77 30   LegendNANA
20:00 23.4 18.4 74 0.0 LegendMM LegendMM   99.81 30   LegendNANA
21:00 23.0 18.6 76 0.0 LegendMM LegendMM   99.79 29   LegendNANA
22:00 22.5 18.8 80 0.0 LegendMM LegendMM   99.80 29   LegendNANA
23:00 22.6 19.4 82 0.0 LegendMM LegendMM   99.80 30   LegendNANA

Notes on Data Quality.

Legend

  • E = Estimated
  • M = Missing
  • NA = Not Available*
  • [empty] = Indicates an unobserved value
Date modified: